^^
Datos históricos de la estación: Murcia-Puente Tocinos
Diario Informe para Marzo 4, 2019 Unidades:  Métrico    Inglés   Ambas
Diario Semanal Mensual Anual Configurable
  Máximo: Mínimo: Media:
Temperatura: 25.7 °C 11.0 °C 18.1 °C
Punto de rocio: 8.9 °C 1.5 °C 4.7 °C
Humedad: 56% 23% 43%
Velocidad viento: 14.5km/h 0.0km/h 7.1km/h
Racha viento: 24.1km/h - -
Viento- - SSW
Presión: 1018.8 hPa 1014.0 hPa -
Precipitación: 0.0 mm    
Historical Graphs
 
 
Tabla de datos para Marzo 4, 2019
Hora Temperatura Punto de rocio Presión Viento Velocidad viento Racha viento Humedad Intensidad lluvia(por hora) Nubes
00:00 15.5 °C 4.8 °C 1018.8 hPa South 3.2 km/h 8.0 km/h 49% 0.0 mm CLR
00:04 15.4 °C 4.7 °C 1018.6 hPa NNW 3.9 km/h 7.4 km/h 49% 0.0 mm CLR
00:09 14.8 °C 4.4 °C 1018.6 hPa NNW 3.9 km/h 7.4 km/h 50% 0.0 mm CLR
00:15 14.6 °C 4.5 °C 1018.6 hPa NNW 3.2 km/h 8.0 km/h 51% 0.0 mm CLR
00:19 14.3 °C 4.6 °C 1018.5 hPa NNW 3.2 km/h 3.7 km/h 52% 0.0 mm CLR
00:25 14.2 °C 4.5 °C 1018.5 hPa NNW 3.2 km/h 4.8 km/h 52% 0.0 mm CLR
00:29 14.2 °C 4.5 °C 1018.5 hPa NNW 2.9 km/h 3.7 km/h 52% 0.0 mm CLR
00:34 14.1 °C 4.4 °C 1018.3 hPa NNW 2.9 km/h 3.7 km/h 52% 0.0 mm CLR
00:39 14.0 °C 4.3 °C 1018.3 hPa NNW 2.3 km/h 3.7 km/h 52% 0.0 mm CLR
00:45 14.0 °C 4.3 °C 1018.3 hPa NNW 2.3 km/h 3.7 km/h 52% 0.0 mm CLR
00:49 14.1 °C 4.4 °C 1018.4 hPa NNW 2.3 km/h   52% 0.0 mm CLR
00:55 14.1 °C 4.4 °C 1018.4 hPa NNW 1.6 km/h   52% 0.0 mm CLR
01:00 14.2 °C 4.2 °C 1018.4 hPa Calm   4.8 km/h 51% 0.0 mm CLR
01:05 14.2 °C 4.2 °C 1018.2 hPa Calm   4.8 km/h 51% 0.0 mm CLR
01:09 14.2 °C 4.2 °C 1018.2 hPa NNW 2.9 km/h 5.6 km/h 51% 0.0 mm CLR
01:15 14.1 °C 3.8 °C 1018.2 hPa ESE 2.9 km/h 7.4 km/h 50% 0.0 mm CLR
01:19 13.9 °C 3.6 °C 1018.2 hPa ESE 4.7 km/h 7.4 km/h 50% 0.0 mm CLR
01:25 13.7 °C 3.4 °C 1018.2 hPa ESE 4.7 km/h 5.6 km/h 50% 0.0 mm CLR
01:29 13.7 °C 3.4 °C 1018.2 hPa ESE 3.9 km/h 4.7 km/h 50% 0.0 mm CLR
01:35 13.7 °C 3.4 °C 1018.1 hPa ESE 3.2 km/h 4.8 km/h 50% 0.0 mm CLR
01:39 13.8 °C 3.8 °C 1018.1 hPa ESE 3.9 km/h 5.6 km/h 51% 0.0 mm CLR
01:45 13.9 °C 3.9 °C 1018.1 hPa SSE 3.9 km/h 7.6 km/h 51% 0.0 mm CLR
01:49 14.1 °C 4.1 °C 1018.1 hPa South 5.8 km/h 9.3 km/h 51% 0.0 mm CLR
01:55 14.3 °C 4.3 °C 1018.1 hPa South 5.8 km/h 9.3 km/h 51% 0.0 mm CLR
02:00 14.3 °C 4.3 °C 1018.1 hPa SSW 8.0 km/h 9.7 km/h 51% 0.0 mm CLR
02:05 14.3 °C 4.6 °C 1018.2 hPa SSW 8.0 km/h 9.7 km/h 52% 0.0 mm CLR
02:09 14.2 °C 4.5 °C 1018.2 hPa South 5.8 km/h 9.5 km/h 52% 0.0 mm CLR
02:14 14.2 °C 4.5 °C 1018.2 hPa South 5.8 km/h 14.8 km/h 52% 0.0 mm CLR
02:19 13.9 °C 4.4 °C 1018.2 hPa SSW 8.7 km/h 9.3 km/h 53% 0.0 mm CLR
02:25 13.8 °C 4.1 °C 1018.2 hPa SSW 9.7 km/h 11.3 km/h 52% 0.0 mm CLR
02:29 13.6 °C 4.2 °C 1018.2 hPa SW 6.9 km/h 11.1 km/h 53% 0.0 mm CLR
02:35 13.5 °C 3.8 °C 1018.2 hPa SW 6.9 km/h 13.0 km/h 52% 0.0 mm CLR
02:39 13.6 °C 3.9 °C 1018.2 hPa SSW 8.7 km/h 14.8 km/h 52% 0.0 mm CLR
02:45 13.6 °C 3.9 °C 1018.2 hPa SSW 9.7 km/h 14.5 km/h 52% 0.0 mm CLR
02:49 13.5 °C 3.8 °C 1018.2 hPa SSW 9.5 km/h 13.7 km/h 52% 0.0 mm CLR
02:55 13.4 °C 4.0 °C 1018.2 hPa SSW 9.5 km/h 16.7 km/h 53% 0.0 mm CLR
03:00 13.3 °C 4.2 °C 1018.2 hPa SSW 11.3 km/h 16.1 km/h 54% 0.0 mm CLR
03:05 13.2 °C 4.1 °C 1018.1 hPa SSW 11.3 km/h 22.5 km/h 54% 0.0 mm CLR
03:09 13.3 °C 3.9 °C 1018.1 hPa SSW 12.2 km/h 18.5 km/h 53% 0.0 mm CLR
03:15 13.5 °C 4.1 °C 1018.1 hPa SSW 12.2 km/h 14.8 km/h 53% 0.0 mm CLR
03:19 13.6 °C 3.9 °C 1017.9 hPa SSW 11.1 km/h 14.8 km/h 52% 0.0 mm CLR
03:25 13.7 °C 3.9 °C 1017.9 hPa SW 11.3 km/h 14.5 km/h 52% 0.0 mm CLR
03:29 13.7 °C 4.0 °C 1017.9 hPa SW 9.5 km/h 9.3 km/h 52% 0.0 mm CLR
03:35 13.6 °C 3.9 °C 1018.0 hPa SW 9.7 km/h 11.3 km/h 52% 0.0 mm CLR
03:39 13.4 °C 3.7 °C 1018.0 hPa SW 6.9 km/h 11.1 km/h 52% 0.0 mm CLR
03:45 13.4 °C 3.7 °C 1018.0 hPa SW 6.9 km/h 11.9 km/h 52% 0.0 mm CLR
03:49 13.3 °C 3.7 °C 1017.9 hPa WSW 6.9 km/h 9.3 km/h 52% 0.0 mm CLR
03:55 13.2 °C 3.6 °C 1017.9 hPa West 6.9 km/h 7.4 km/h 52% 0.0 mm CLR
04:00 13.0 °C 3.6 °C 1017.9 hPa West 4.8 km/h 8.0 km/h 53% 0.0 mm CLR
04:04 12.8 °C 3.4 °C 1017.8 hPa West 5.0 km/h 3.7 km/h 53% 0.0 mm CLR
04:09 12.6 °C 3.6 °C 1017.8 hPa West 3.2 km/h 7.4 km/h 54% 0.0 mm CLR
04:15 12.5 °C 3.4 °C 1017.8 hPa West 3.2 km/h 7.4 km/h 54% 0.0 mm CLR
04:19 12.5 °C 3.4 °C 1017.7 hPa SSW 4.7 km/h 9.3 km/h 54% 0.0 mm CLR
04:25 12.5 °C 3.4 °C 1017.7 hPa SSW 4.7 km/h 7.4 km/h 54% 0.0 mm CLR
04:30 12.4 °C 3.3 °C 1017.7 hPa South 4.7 km/h 7.4 km/h 54% 0.0 mm CLR
04:35 12.3 °C 3.2 °C 1017.5 hPa South 4.7 km/h 7.4 km/h 54% 0.0 mm CLR
04:39 12.1 °C 3.3 °C 1017.5 hPa South 5.8 km/h 9.3 km/h 55% 0.0 mm CLR
04:45 12.1 °C 3.1 °C 1017.5 hPa SW 5.8 km/h 11.1 km/h 54% 0.0 mm CLR
04:49 12.1 °C 2.8 °C 1017.5 hPa SSW 6.9 km/h 14.8 km/h 53% 0.0 mm CLR
04:55 12.0 °C 2.7 °C 1017.5 hPa SSW 8.0 km/h 14.5 km/h 53% 0.0 mm CLR
05:00 11.9 °C 2.6 °C 1017.5 hPa SW 8.0 km/h 9.7 km/h 53% 0.0 mm CLR
05:05 11.8 °C 2.5 °C 1017.4 hPa SSW 8.0 km/h 12.9 km/h 53% 0.0 mm CLR
05:09 11.8 °C 2.5 °C 1017.4 hPa SSW 7.6 km/h 13.0 km/h 53% 0.0 mm CLR
05:15 11.7 °C 2.7 °C 1017.4 hPa SSE 7.6 km/h 7.4 km/h 54% 0.0 mm CLR
05:20 11.7 °C 2.7 °C 1017.3 hPa SSW 7.6 km/h 7.4 km/h 54% 0.0 mm CLR
05:25 11.6 °C 2.6 °C 1017.3 hPa SSW 8.0 km/h 11.3 km/h 54% 0.0 mm CLR
05:29 11.7 °C 2.4 °C 1017.3 hPa WSW 6.9 km/h 9.5 km/h 53% 0.0 mm CLR
05:35 11.7 °C 2.4 °C 1017.3 hPa SW 6.9 km/h 7.4 km/h 53% 0.0 mm CLR
05:39 11.7 °C 2.4 °C 1017.3 hPa SW 5.8 km/h 7.4 km/h 53% 0.0 mm CLR
05:45 11.7 °C 2.4 °C 1017.3 hPa SW 4.8 km/h 8.0 km/h 53% 0.0 mm CLR
05:49 11.7 °C 2.2 °C 1017.5 hPa SW 4.7 km/h 7.4 km/h 52% 0.0 mm CLR
05:55 11.7 °C 2.2 °C 1017.5 hPa SSW 4.7 km/h 7.6 km/h 52% 0.0 mm CLR
06:00 11.7 °C 1.9 °C 1017.5 hPa SSW 4.8 km/h 11.3 km/h 51% 0.0 mm CLR
06:05 11.7 °C 1.9 °C 1017.5 hPa SW 5.8 km/h 9.3 km/h 51% 0.0 mm CLR
06:09 11.7 °C 1.9 °C 1017.5 hPa SSW 5.8 km/h 9.3 km/h 51% 0.0 mm CLR
06:15 11.7 °C 1.9 °C 1017.5 hPa SSW 4.8 km/h 11.3 km/h 51% 0.0 mm CLR
06:19 11.7 °C 1.9 °C 1017.6 hPa South 5.8 km/h 10.0 km/h 51% 0.0 mm CLR
06:25 11.6 °C 1.5 °C 1017.6 hPa SSW 4.8 km/h 12.9 km/h 50% 0.0 mm CLR
06:29 11.6 °C 1.5 °C 1017.6 hPa SSE 7.6 km/h 13.7 km/h 50% 0.0 mm CLR
06:35 11.6 °C 1.8 °C 1017.5 hPa SW 8.0 km/h 12.9 km/h 51% 0.0 mm CLR
06:39 11.5 °C 1.7 °C 1017.5 hPa South 6.9 km/h 9.3 km/h 51% 0.0 mm CLR
06:45 11.4 °C 1.9 °C 1017.5 hPa South 8.0 km/h 9.7 km/h 52% 0.0 mm CLR
06:49 11.2 °C 1.9 °C 1017.5 hPa South 5.8 km/h 8.7 km/h 53% 0.0 mm CLR
06:55 11.0 °C 1.8 °C 1017.5 hPa South 4.8 km/h 14.5 km/h 53% 0.0 mm CLR
06:59 11.1 °C 1.9 °C 1017.5 hPa SW 7.6 km/h 9.3 km/h 53% 0.0 mm CLR
07:05 11.2 °C 1.7 °C 1017.5 hPa SW 8.0 km/h 14.5 km/h 52% 0.0 mm CLR
07:09 11.4 °C 1.6 °C 1017.5 hPa West 8.4 km/h 9.3 km/h 51% 0.0 mm CLR
07:15 11.4 °C 1.6 °C 1017.5 hPa WSW 8.0 km/h 9.7 km/h 51% 0.0 mm CLR
07:19 11.5 °C 1.7 °C 1017.6 hPa SW 6.4 km/h 9.3 km/h 51% 0.0 mm CLR
07:25 11.6 °C 1.8 °C 1017.6 hPa WSW 8.0 km/h 9.7 km/h 51% 0.0 mm CLR
07:29 11.6 °C 1.8 °C 1017.6 hPa WSW 5.8 km/h 7.4 km/h 51% 0.0 mm CLR
07:35 11.5 °C 1.7 °C 1017.9 hPa WSW 4.8 km/h 9.7 km/h 51% 0.0 mm CLR
07:39 11.5 °C 1.7 °C 1017.9 hPa SW 5.0 km/h 10.0 km/h 51% 0.0 mm CLR
07:45 11.6 °C 1.5 °C 1017.9 hPa SW 4.8 km/h 11.3 km/h 50% 0.0 mm CLR
07:49 11.7 °C 1.6 °C 1018.0 hPa SW 6.9 km/h 9.3 km/h 50% 0.0 mm CLR
07:55 11.7 °C 1.6 °C 1018.0 hPa SW 6.9 km/h 7.4 km/h 50% 0.0 mm CLR
08:00 11.8 °C 1.7 °C 1018.0 hPa SW 4.8 km/h 11.3 km/h 50% 0.0 mm CLR
08:05 12.0 °C 1.6 °C 1018.0 hPa SSW 4.8 km/h 11.3 km/h 49% 0.0 mm CLR
08:10 12.1 °C 1.7 °C 1018.0 hPa SW 8.0 km/h 9.7 km/h 49% 0.0 mm CLR
08:15 12.3 °C 1.9 °C 1018.0 hPa SW 6.4 km/h 10.0 km/h 49% 0.0 mm CLR
08:20 12.4 °C 1.9 °C 1018.1 hPa SSW 8.0 km/h 9.7 km/h 49% 0.0 mm CLR
08:25 12.4 °C 2.0 °C 1018.1 hPa SSW 8.0 km/h 8.0 km/h 49% 0.0 mm CLR
08:29 12.7 °C 2.2 °C 1018.1 hPa SSW 3.9 km/h 7.4 km/h 49% 0.0 mm CLR
08:35 12.8 °C 2.3 °C 1018.1 hPa SSW 3.2 km/h 11.3 km/h 49% 0.0 mm CLR
08:39 12.9 °C 2.2 °C 1018.1 hPa WSW 5.8 km/h 9.3 km/h 48% 0.0 mm CLR
08:45 12.9 °C 2.4 °C 1018.1 hPa WSW 4.8 km/h 9.7 km/h 49% 0.0 mm CLR
08:50 13.0 °C 2.5 °C 1018.3 hPa West 6.4 km/h 7.4 km/h 49% 0.0 mm CLR
08:55 13.1 °C 2.9 °C 1018.3 hPa WSW 6.4 km/h 9.3 km/h 50% 0.0 mm CLR
09:00 13.2 °C 2.7 °C 1018.3 hPa West 4.8 km/h 9.7 km/h 49% 0.0 mm CLR
09:05 13.5 °C 2.9 °C 1018.3 hPa West 4.8 km/h 11.3 km/h 49% 0.0 mm CLR
09:10 13.9 °C 3.1 °C 1018.3 hPa SW 5.0 km/h 7.4 km/h 48% 0.0 mm CLR
09:15 14.2 °C 3.1 °C 1018.3 hPa WSW 5.0 km/h 5.6 km/h 47% 0.0 mm CLR
09:20 14.6 °C 3.4 °C 1018.5 hPa WSW 3.2 km/h 4.8 km/h 47% 0.0 mm CLR
09:25 15.2 °C 3.6 °C 1018.5 hPa WSW 3.2 km/h 8.0 km/h 46% 0.0 mm CLR
09:30 15.8 °C 3.9 °C 1018.5 hPa SSE 3.2 km/h   45% 0.0 mm CLR
09:35 16.2 °C 3.9 °C 1018.6 hPa South 3.2 km/h 7.4 km/h 44% 0.0 mm CLR
09:40 16.6 °C 3.9 °C 1018.6 hPa SSW 3.2 km/h 9.3 km/h 43% 0.0 mm CLR
09:45 16.9 °C 4.2 °C 1018.6 hPa South 3.2 km/h 11.1 km/h 43% 0.0 mm CLR
09:49 17.1 °C 4.1 °C 1018.5 hPa SW 6.9 km/h 9.5 km/h 42% 0.0 mm CLR
09:55 17.1 °C 4.1 °C 1018.5 hPa SW 6.9 km/h 9.5 km/h 42% 0.0 mm CLR
10:00 17.3 °C 4.3 °C 1018.5 hPa SSW 8.0 km/h 12.9 km/h 42% 0.0 mm CLR
10:05 17.6 °C 4.5 °C 1018.2 hPa SSW 8.0 km/h 14.5 km/h 42% 0.0 mm CLR
10:10 17.8 °C 4.7 °C 1018.2 hPa SSW 8.0 km/h 12.9 km/h 42% 0.0 mm CLR
10:15 18.2 °C 5.1 °C 1018.2 hPa SW 8.4 km/h 5.6 km/h 42% 0.0 mm CLR
10:19 18.3 °C 4.8 °C 1018.4 hPa WSW 6.9 km/h 9.3 km/h 41% 0.0 mm CLR
10:25 18.6 °C 5.1 °C 1018.4 hPa WSW 8.0 km/h 12.9 km/h 41% 0.0 mm CLR
10:30 18.8 °C 4.9 °C 1018.4 hPa West 6.9 km/h 14.8 km/h 40% 0.0 mm CLR
10:35 18.9 °C 5.0 °C 1018.4 hPa WSW 8.0 km/h 14.5 km/h 40% 0.0 mm CLR
10:39 19.2 °C 5.3 °C 1018.4 hPa WNW 7.6 km/h 7.4 km/h 40% 0.0 mm CLR
10:45 19.4 °C 5.1 °C 1018.4 hPa West 8.0 km/h 11.3 km/h 39% 0.0 mm CLR
10:49 19.7 °C 5.3 °C 1018.5 hPa West 5.8 km/h 9.3 km/h 39% 0.0 mm CLR
10:55 19.9 °C 5.5 °C 1018.5 hPa WNW 4.8 km/h 9.7 km/h 39% 0.0 mm CLR
11:00 20.3 °C 5.5 °C 1018.5 hPa West 4.8 km/h 14.5 km/h 38% 0.0 mm CLR
11:05 20.3 °C 5.5 °C 1018.5 hPa West 4.8 km/h 14.5 km/h 38% 0.0 mm CLR
11:09 20.3 °C 5.1 °C 1018.5 hPa West 7.6 km/h 11.1 km/h 37% 0.0 mm CLR
11:15 20.4 °C 5.2 °C 1018.5 hPa WNW 7.6 km/h 5.6 km/h 37% 0.0 mm CLR
11:20 20.6 °C 5.0 °C 1018.4 hPa West 5.8 km/h 9.3 km/h 36% 0.0 mm CLR
11:25 20.8 °C 5.2 °C 1018.4 hPa WSW 5.8 km/h 7.4 km/h 36% 0.0 mm CLR
11:29 21.0 °C 5.3 °C 1018.4 hPa NW 5.0 km/h 5.6 km/h 36% 0.0 mm CLR
11:35 21.4 °C 5.7 °C 1018.3 hPa NNE 5.0 km/h 7.4 km/h 36% 0.0 mm CLR
11:39 21.7 °C 5.2 °C 1018.3 hPa WNW 4.7 km/h 9.3 km/h 34% 0.0 mm CLR
11:45 21.7 °C 5.2 °C 1018.3 hPa WNW 4.7 km/h 3.7 km/h 34% 0.0 mm CLR
11:50 22.1 °C 5.5 °C 1018.1 hPa WNW 3.9 km/h 1.9 km/h 34% 0.0 mm CLR
11:55 22.4 °C 5.3 °C 1018.1 hPa West 3.2 km/h 8.0 km/h 33% 0.0 mm CLR
12:00 22.3 °C 5.2 °C 1018.1 hPa SW 3.2 km/h 12.9 km/h 33% 0.0 mm CLR
12:05 22.2 °C 5.6 °C 1018.1 hPa SE 4.7 km/h 9.3 km/h 34% 0.0 mm CLR
12:09 22.3 °C 5.7 °C 1018.1 hPa NE 6.9 km/h 7.4 km/h 34% 0.0 mm CLR
12:15 22.6 °C 5.5 °C 1018.1 hPa East 8.0 km/h 8.0 km/h 33% 0.0 mm CLR
12:19 22.8 °C 5.7 °C 1017.9 hPa ESE 3.9 km/h 11.1 km/h 33% 0.0 mm CLR
12:25 22.8 °C 5.7 °C 1017.9 hPa ESE 3.2 km/h 9.7 km/h 33% 0.0 mm CLR
12:29 23.1 °C 5.5 °C 1017.9 hPa South 5.8 km/h 5.6 km/h 32% 0.0 mm CLR
12:35 23.2 °C 5.6 °C 1017.6 hPa East 4.8 km/h 9.7 km/h 32% 0.0 mm CLR
12:40 23.3 °C 5.2 °C 1017.6 hPa East 3.2 km/h 9.7 km/h 31% 0.0 mm CLR
12:45 23.4 °C 4.8 °C 1017.6 hPa SSE 4.7 km/h 9.5 km/h 30% 0.0 mm CLR
12:49 23.2 °C 5.1 °C 1017.4 hPa SW 6.4 km/h 7.4 km/h 31% 0.0 mm CLR
12:55 23.3 °C 5.2 °C 1017.4 hPa NNE 6.4 km/h 11.1 km/h 31% 0.0 mm CLR
13:00 23.4 °C 5.3 °C 1017.4 hPa North 4.8 km/h 11.3 km/h 31% 0.0 mm CLR
13:05 23.4 °C 5.3 °C 1017.2 hPa NNE 5.0 km/h 7.4 km/h 31% 0.0 mm CLR
13:09 23.6 °C 5.0 °C 1017.2 hPa ENE 5.0 km/h 9.3 km/h 30% 0.0 mm CLR
13:15 23.7 °C 5.6 °C 1017.2 hPa NE 4.8 km/h 8.0 km/h 31% 0.0 mm CLR
13:19 23.8 °C 5.2 °C 1017.0 hPa NW 5.0 km/h 11.1 km/h 30% 0.0 mm CLR
13:25 23.9 °C 5.3 °C 1017.0 hPa NNE 4.8 km/h 12.9 km/h 30% 0.0 mm CLR
13:30 23.7 °C 5.1 °C 1017.0 hPa NE 6.9 km/h 9.3 km/h 30% 0.0 mm CLR
13:35 23.8 °C 5.2 °C 1016.7 hPa ESE 6.9 km/h 7.4 km/h 30% 0.0 mm CLR
13:40 24.0 °C 4.8 °C 1016.7 hPa NNE 5.0 km/h 9.5 km/h 29% 0.0 mm CLR
13:45 24.1 °C 4.4 °C 1016.7 hPa ENE 4.8 km/h 9.7 km/h 28% 0.0 mm CLR
13:49 24.2 °C 4.6 °C 1016.5 hPa NNE 5.8 km/h 9.3 km/h 28% 0.0 mm CLR
13:55 24.2 °C 4.0 °C 1016.5 hPa NNE 5.8 km/h 7.4 km/h 27% 0.0 mm CLR
14:00 24.4 °C 4.2 °C 1016.5 hPa NE 4.8 km/h 9.7 km/h 27% 0.0 mm CLR
14:05 24.5 °C 4.3 °C 1016.2 hPa NE 5.0 km/h 7.4 km/h 27% 0.0 mm CLR
14:10 24.7 °C 3.9 °C 1016.2 hPa NNW 5.8 km/h   26% 0.0 mm CLR
14:15 24.9 °C 3.6 °C 1016.2 hPa NNE 4.8 km/h 8.0 km/h 25% 0.0 mm CLR
14:20 25.2 °C 3.8 °C 1015.8 hPa SW 3.2 km/h 9.7 km/h 25% 0.0 mm CLR
14:25 25.1 °C 3.1 °C 1015.8 hPa WSW 3.2 km/h 12.9 km/h 24% 0.0 mm CLR
14:30 25.0 °C 2.4 °C 1015.8 hPa SSW 8.0 km/h 11.3 km/h 23% 0.0 mm CLR
14:35 24.9 °C 2.4 °C 1015.5 hPa SE 8.0 km/h 11.3 km/h 23% 0.0 mm CLR
14:40 24.9 °C 3.0 °C 1015.5 hPa ESE 4.8 km/h 11.3 km/h 24% 0.0 mm CLR
14:45 25.0 °C 3.0 °C 1015.5 hPa East 4.8 km/h 9.7 km/h 24% 0.0 mm CLR
14:49 25.2 °C 3.2 °C 1015.3 hPa WSW 5.8 km/h 4.7 km/h 24% 0.0 mm CLR
14:55 25.5 °C 3.4 °C 1015.3 hPa NNE 4.8 km/h 11.3 km/h 24% 0.0 mm CLR
15:00 25.6 °C 2.9 °C 1015.3 hPa West 3.2 km/h 12.9 km/h 23% 0.0 mm CLR
15:05 25.6 °C 2.9 °C 1015.1 hPa WSW 3.2 km/h 14.5 km/h 23% 0.0 mm CLR
15:10 25.4 °C 2.8 °C 1015.1 hPa SSW 9.7 km/h 17.7 km/h 23% 0.0 mm CLR
15:15 25.5 °C 2.8 °C 1015.1 hPa South 9.7 km/h 14.5 km/h 23% 0.0 mm CLR
15:19 25.6 °C 2.9 °C 1014.8 hPa SSW 7.6 km/h 13.0 km/h 23% 0.0 mm CLR
15:25 25.6 °C 2.9 °C 1014.8 hPa SSE 8.0 km/h 17.7 km/h 23% 0.0 mm CLR
15:30 25.6 °C 3.6 °C 1014.8 hPa South 8.0 km/h 14.5 km/h 24% 0.0 mm CLR
15:35 25.7 °C 6.3 °C 1014.8 hPa SSE 8.0 km/h 19.3 km/h 29% 0.0 mm CLR
15:39 25.3 °C 6.4 °C 1014.8 hPa SSE 10.0 km/h 22.2 km/h 30% 0.0 mm CLR
15:45 25.1 °C 5.8 °C 1014.8 hPa SE 9.7 km/h 22.5 km/h 29% 0.0 mm CLR
15:49 24.8 °C 5.6 °C 1014.7 hPa SSE 14.0 km/h 18.5 km/h 29% 0.0 mm CLR
15:55 24.8 °C 5.1 °C 1014.7 hPa SE 14.0 km/h 18.5 km/h 28% 0.0 mm CLR
16:00 24.9 °C 5.1 °C 1014.7 hPa SE 12.9 km/h 16.1 km/h 28% 0.0 mm CLR
16:05 24.9 °C 4.6 °C 1014.5 hPa SE 12.2 km/h 20.4 km/h 27% 0.0 mm CLR
16:10 24.8 °C 4.5 °C 1014.5 hPa SE 12.9 km/h 24.1 km/h 27% 0.0 mm CLR
16:15 24.8 °C 4.5 °C 1014.5 hPa SE 12.9 km/h 22.5 km/h 27% 0.0 mm CLR
16:20 24.7 °C 4.9 °C 1014.3 hPa SE 14.5 km/h 22.5 km/h 28% 0.0 mm CLR
16:25 24.7 °C 5.0 °C 1014.3 hPa SE 14.5 km/h 22.5 km/h 28% 0.0 mm CLR
16:29 24.8 °C 5.6 °C 1014.3 hPa South 14.0 km/h 20.9 km/h 29% 0.0 mm CLR
16:35 24.8 °C 5.6 °C 1014.2 hPa ESE 14.0 km/h 20.4 km/h 29% 0.0 mm CLR
16:40 24.8 °C 6.1 °C 1014.2 hPa SE 13.7 km/h 18.5 km/h 30% 0.0 mm CLR
16:45 24.8 °C 6.1 °C 1014.2 hPa SE 13.7 km/h 23.7 km/h 30% 0.0 mm CLR
16:50 24.8 °C 5.6 °C 1014.2 hPa SSE 14.5 km/h 24.1 km/h 29% 0.0 mm CLR
16:55 24.7 °C 5.9 °C 1014.2 hPa SSE 14.0 km/h 20.4 km/h 30% 0.0 mm CLR
17:00 24.7 °C 5.9 °C 1014.2 hPa SSE 14.5 km/h 22.5 km/h 30% 0.0 mm CLR
17:05 24.6 °C 5.9 °C 1014.1 hPa SSE 14.5 km/h 22.5 km/h 30% 0.0 mm CLR
17:10 24.5 °C 6.3 °C 1014.1 hPa SSE 14.0 km/h 20.4 km/h 31% 0.0 mm CLR
17:15 24.3 °C 6.6 °C 1014.1 hPa SSE 14.0 km/h 14.8 km/h 32% 0.0 mm CLR
17:20 24.3 °C 6.6 °C 1014.0 hPa SE 12.2 km/h 13.0 km/h 32% 0.0 mm CLR
17:25 24.1 °C 6.8 °C 1014.0 hPa SSE 12.2 km/h 16.1 km/h 33% 0.0 mm CLR
17:30 23.9 °C 6.7 °C 1014.0 hPa ESE 11.9 km/h 13.0 km/h 33% 0.0 mm CLR
17:35 23.7 °C 6.4 °C 1014.1 hPa SSE 11.9 km/h 20.4 km/h 33% 0.0 mm CLR
17:40 23.5 °C 6.3 °C 1014.1 hPa SSE 13.0 km/h 13.0 km/h 33% 0.0 mm CLR
17:45 23.6 °C 6.4 °C 1014.1 hPa SSE 12.9 km/h 16.1 km/h 33% 0.0 mm CLR
17:50 23.6 °C 6.4 °C 1014.1 hPa SSE 10.3 km/h 16.7 km/h 33% 0.0 mm CLR
17:55 23.5 °C 6.3 °C 1014.1 hPa SSE 11.3 km/h 14.5 km/h 33% 0.0 mm CLR
18:00 23.5 °C 6.3 °C 1014.1 hPa SSE 9.7 km/h 12.9 km/h 33% 0.0 mm CLR
18:05 23.6 °C 5.9 °C 1014.2 hPa South 10.0 km/h 7.4 km/h 32% 0.0 mm CLR
18:10 23.7 °C 5.6 °C 1014.2 hPa SW 5.0 km/h 9.3 km/h 31% 0.0 mm CLR
18:15 23.7 °C 5.6 °C 1014.2 hPa SSW 4.8 km/h 11.3 km/h 31% 0.0 mm CLR
18:20 23.6 °C 5.9 °C 1014.4 hPa SW 8.0 km/h 16.1 km/h 32% 0.0 mm CLR
18:25 23.2 °C 5.6 °C 1014.4 hPa SSW 6.4 km/h 16.7 km/h 32% 0.0 mm CLR
18:30 23.1 °C 5.5 °C 1014.4 hPa SSW 11.3 km/h 16.1 km/h 32% 0.0 mm CLR
18:35 23.0 °C 5.4 °C 1014.5 hPa NW 11.1 km/h 14.8 km/h 32% 0.0 mm CLR
18:40 22.9 °C 5.8 °C 1014.5 hPa SW 9.5 km/h 9.3 km/h 33% 0.0 mm CLR
18:45 22.8 °C 6.1 °C 1014.5 hPa SSW 9.5 km/h 13.0 km/h 34% 0.0 mm CLR
18:49 22.7 °C 6.0 °C 1014.5 hPa WSW 8.7 km/h 17.2 km/h 34% 0.0 mm CLR
18:55 22.6 °C 5.9 °C 1014.5 hPa SW 9.7 km/h 17.7 km/h 34% 0.0 mm CLR
19:00 22.4 °C 5.3 °C 1014.5 hPa SW 9.7 km/h 19.3 km/h 33% 0.0 mm CLR
19:05 22.3 °C 5.2 °C 1014.5 hPa SSW 9.7 km/h 19.3 km/h 33% 0.0 mm CLR
19:10 22.1 °C 5.5 °C 1014.5 hPa SW 9.7 km/h 14.5 km/h 34% 0.0 mm CLR
19:15 21.9 °C 5.3 °C 1014.5 hPa SSW 10.0 km/h 13.0 km/h 34% 0.0 mm CLR
19:20 21.8 °C 5.2 °C 1014.7 hPa SW 9.5 km/h 15.6 km/h 34% 0.0 mm CLR
19:25 21.7 °C 5.2 °C 1014.7 hPa SSW 9.5 km/h 13.0 km/h 34% 0.0 mm CLR
19:30 21.6 °C 5.4 °C 1014.7 hPa SW 11.3 km/h 16.1 km/h 35% 0.0 mm CLR
19:35 21.4 °C 5.3 °C 1014.9 hPa SW 11.3 km/h 14.5 km/h 35% 0.0 mm CLR
19:40 21.2 °C 5.6 °C 1014.9 hPa SW 9.7 km/h 20.9 km/h 36% 0.0 mm CLR
19:45 21.1 °C 5.4 °C 1014.9 hPa SW 9.7 km/h 20.9 km/h 36% 0.0 mm CLR
19:50 20.9 °C 5.3 °C 1015.0 hPa SW 9.7 km/h 12.9 km/h 36% 0.0 mm CLR
19:55 20.9 °C 5.7 °C 1015.0 hPa SW 9.7 km/h 12.9 km/h 37% 0.0 mm CLR
20:00 20.8 °C 5.6 °C 1015.0 hPa SW 8.0 km/h 12.9 km/h 37% 0.0 mm CLR
20:05 20.7 °C 5.5 °C 1015.1 hPa SSW 6.4 km/h 7.4 km/h 37% 0.0 mm CLR
20:10 20.7 °C 5.5 °C 1015.1 hPa SSW 4.8 km/h 9.7 km/h 37% 0.0 mm CLR
20:15 20.7 °C 5.5 °C 1015.1 hPa SSW 5.8 km/h 11.1 km/h 37% 0.0 mm CLR
20:20 20.6 °C 5.4 °C 1015.2 hPa SW 8.0 km/h 11.3 km/h 37% 0.0 mm CLR
20:25 20.5 °C 5.7 °C 1015.2 hPa WSW 6.9 km/h 7.4 km/h 38% 0.0 mm CLR
20:30 20.4 °C 5.6 °C 1015.2 hPa WSW 8.0 km/h 8.0 km/h 38% 0.0 mm CLR
20:35 20.2 °C 5.4 °C 1015.2 hPa WSW 8.0 km/h 11.3 km/h 38% 0.0 mm CLR
20:40 20.2 °C 5.8 °C 1015.2 hPa SW 8.0 km/h 11.3 km/h 39% 0.0 mm CLR
20:45 20.1 °C 5.7 °C 1015.2 hPa SW 8.0 km/h 11.3 km/h 39% 0.0 mm CLR
20:50 19.9 °C 5.9 °C 1015.5 hPa SW 8.0 km/h 14.5 km/h 40% 0.0 mm CLR
20:55 19.8 °C 6.2 °C 1015.5 hPa SW 8.0 km/h 12.9 km/h 41% 0.0 mm CLR
21:00 19.7 °C 6.4 °C 1015.5 hPa SW 8.0 km/h 12.9 km/h 42% 0.0 mm CLR
21:05 19.6 °C 6.6 °C 1015.6 hPa SW 8.0 km/h 14.5 km/h 43% 0.0 mm CLR
21:10 19.4 °C 6.5 °C 1015.6 hPa SSW 7.6 km/h 14.8 km/h 43% 0.0 mm CLR
21:15 19.3 °C 6.7 °C 1015.6 hPa SSW 7.6 km/h 14.8 km/h 44% 0.0 mm CLR
21:20 19.3 °C 6.7 °C 1015.7 hPa SW 8.0 km/h 14.5 km/h 44% 0.0 mm CLR
21:25 19.2 °C 7.6 °C 1015.7 hPa SW 8.4 km/h 14.8 km/h 47% 0.0 mm CLR
21:30 18.8 °C 7.8 °C 1015.7 hPa South 8.7 km/h 16.7 km/h 49% 0.0 mm CLR
21:35 18.5 °C 8.2 °C 1015.9 hPa SSW 9.7 km/h 17.7 km/h 51% 0.0 mm CLR
21:40 18.3 °C 8.3 °C 1015.9 hPa SSW 10.0 km/h 11.1 km/h 52% 0.0 mm CLR
21:45 18.2 °C 8.4 °C 1015.9 hPa SW 10.0 km/h 14.8 km/h 53% 0.0 mm CLR
21:50 18.1 °C 8.7 °C 1016.0 hPa SSW 9.7 km/h 16.1 km/h 54% 0.0 mm CLR
21:55 18.1 °C 8.9 °C 1016.0 hPa SSW 9.7 km/h 14.5 km/h 55% 0.0 mm CLR
22:00 17.9 °C 8.7 °C 1016.0 hPa SSW 9.7 km/h 16.1 km/h 55% 0.0 mm CLR
22:05 17.9 °C 8.7 °C 1016.1 hPa SSW 9.7 km/h 11.3 km/h 55% 0.0 mm CLR
22:10 17.9 °C 8.7 °C 1016.1 hPa SW 8.0 km/h 14.5 km/h 55% 0.0 mm CLR
22:15 17.9 °C 8.4 °C 1016.1 hPa SW 7.6 km/h 10.0 km/h 54% 0.0 mm CLR
22:20 18.0 °C 8.3 °C 1016.2 hPa SW 6.4 km/h 13.0 km/h 53% 0.0 mm CLR
22:25 18.1 °C 8.1 °C 1016.2 hPa WSW 6.4 km/h 9.3 km/h 52% 0.0 mm CLR
22:30 18.1 °C 8.1 °C 1016.2 hPa SW 8.0 km/h 11.3 km/h 52% 0.0 mm CLR
22:35 18.1 °C 8.1 °C 1016.4 hPa South 6.9 km/h 9.3 km/h 52% 0.0 mm CLR
22:40 18.0 °C 8.3 °C 1016.4 hPa SSW 8.0 km/h 9.7 km/h 53% 0.0 mm CLR
22:45 17.8 °C 8.1 °C 1016.4 hPa SSW 6.4 km/h 7.4 km/h 53% 0.0 mm CLR
22:50 17.7 °C 8.0 °C 1016.5 hPa SW 3.2 km/h 8.0 km/h 53% 0.0 mm CLR
22:55 17.6 °C 8.2 °C 1016.5 hPa WSW 4.7 km/h 7.4 km/h 54% 0.0 mm CLR
23:00 17.4 °C 8.0 °C 1016.5 hPa WSW 3.2 km/h 8.0 km/h 54% 0.0 mm CLR
23:05 17.4 °C 8.0 °C 1016.7 hPa WSW 3.2 km/h 9.7 km/h 54% 0.0 mm CLR
23:10 17.3 °C 7.9 °C 1016.7 hPa SW 8.0 km/h 9.7 km/h 54% 0.0 mm CLR
23:15 17.3 °C 7.9 °C 1016.7 hPa SSW 6.4 km/h 13.0 km/h 54% 0.0 mm CLR
23:20 17.2 °C 7.8 °C 1016.6 hPa SW 7.6 km/h 9.3 km/h 54% 0.0 mm CLR
23:25 17.2 °C 7.8 °C 1016.6 hPa SSW 8.0 km/h 9.7 km/h 54% 0.0 mm CLR
23:30 17.2 °C 7.8 °C 1016.6 hPa SSW 8.0 km/h 9.7 km/h 54% 0.0 mm CLR
23:35 17.1 °C 8.0 °C 1016.8 hPa SSW 8.0 km/h 11.3 km/h 55% 0.0 mm CLR
23:40 16.9 °C 7.8 °C 1016.8 hPa South 7.6 km/h 11.1 km/h 55% 0.0 mm CLR
23:45 16.8 °C 7.7 °C 1016.8 hPa SSW 8.0 km/h 11.3 km/h 55% 0.0 mm CLR
23:50 16.7 °C 7.6 °C 1016.8 hPa South 8.0 km/h 9.7 km/h 55% 0.0 mm CLR
23:55 16.6 °C 7.8 °C 1016.8 hPa SSW 6.4 km/h 7.4 km/h 56% 0.0 mm CLR
Murcia-Puente Tocinos, España
Compliments of Weather Underground - 2.75 mb

La estación de MeteoMurcia.com, publica sus datos en los siguientes proyectos:

Weather Underground PWS IMURCIAP2 Meteoclimatic www.awekas.at

W3Counter
Web Analytics